Oskaloosa, IA

2:25 AM CDT on April 30, 2017 (GMT -0500)
Oskaloosa Municipal

Weather History for KOOA - October, 2013

Change the Weather History Date:

Saturday, October 12, 2013

  Actual Average (KOTM) Record (KOTM)
Temperature  
Mean Temperature 54 °F -  
Max Temperature 67 °F 63 °F 88 °F (1975)
Min Temperature 41 °F 44 °F 24 °F (1946)
Degree Days  
Heating Degree Days 12    
Growing Degree Days 4 (Base 50)    
Moisture  
Dew Point 42 °F    
Average Humidity 61    
Maximum Humidity 93    
Minimum Humidity 27    
Precipitation  
Precipitation 0.05 in - - ()
Sea Level Pressure  
Sea Level Pressure 30.06 in    
Wind  
Wind Speed 9 mph (WNW)    
Max Wind Speed 17 mph    
Max Gust Speed 26 mph    
Visibility 10 miles    
Events Rain    
Averages and records for this station are not official NWS values.
T = Trace of Precipitation, MM = Missing Value Source: NWS Daily Summary

Daily Weather History Graph

Daily Weather History Graph

Search for Another Location

Airport or City:

Trip Planner

Search our weather history database for the weather conditions in past years. The results will help you decide how hot, cold, wet, or windy it might be!

Date:

Astronomy

Oct. 12, 2013 Rise Set
Actual Time 7:18 AM CDT 6:33 PM CDT
Civil Twilight 6:50 AM CDT 7:01 PM CDT
Nautical Twilight 6:18 AM CDT 7:32 PM CDT
Astronomical Twilight 5:46 AM CDT 8:04 PM CDT
Moon 2:46 PM CDT (10/12) 12:18 AM CDT (10/12)
Length of Visible Light 12h 10m
Length of Day
11h 14m
First Quarter, 59% of the Moon is Illuminated
Oct 12
First Quarter
Oct 18
Full
Oct 26
Last Quarter
Nov 3
New
Nov 9
First Quarter

Hourly Weather History & Observations

Time (CDT) Temp. Windchill Dew Point Humidity Pressure Visibility Wind Dir Wind Speed Gust Speed Precip Events Conditions
12:15 AM 66.7 °F - 58.1 °F 74% 29.85 in 10.0 mi South 6.9 mph - N/A   Mostly Cloudy
12:35 AM 66.4 °F - 58.1 °F 75% 29.84 in 10.0 mi South 6.9 mph - N/A   Overcast
12:55 AM 65.1 °F - 59.4 °F 82% 29.87 in 5.0 mi WSW 12.7 mph 19.6 mph 0.02 in Rain Heavy Rain
1:15 AM 63.1 °F - 58.1 °F 84% 29.86 in 10.0 mi WSW 6.9 mph - 0.01 in   Overcast
1:35 AM 61.9 °F - 57.6 °F 86% 29.86 in 10.0 mi South 4.6 mph - 0.03 in Rain Light Rain
1:55 AM 60.8 °F - 57.6 °F 89% 29.86 in 10.0 mi SE 6.9 mph - 0.03 in   Scattered Clouds
2:15 AM 60.1 °F - 57.2 °F 90% 29.88 in 10.0 mi SSE 5.8 mph - N/A   Mostly Cloudy
2:35 AM 59.7 °F - 56.8 °F 90% 29.88 in 10.0 mi SSW 4.6 mph - N/A   Scattered Clouds
2:55 AM 58.6 °F - 55.9 °F 91% 29.88 in 10.0 mi WNW 4.6 mph - N/A   Clear
3:15 AM 58.6 °F - 56.5 °F 93% 29.89 in 10.0 mi WNW 9.2 mph - N/A   Mostly Cloudy
3:35 AM 59.9 °F - 57.6 °F 92% 29.89 in 10.0 mi West 9.2 mph - N/A   Overcast
3:55 AM 59.4 °F - 56.5 °F 90% 29.88 in 10.0 mi WNW 6.9 mph - N/A   Mostly Cloudy
4:15 AM 57.7 °F - 52.7 °F 83% 29.91 in 10.0 mi WNW 10.4 mph - N/A   Overcast
4:35 AM 55.4 °F - 48.7 °F 78% 29.92 in 10.0 mi WNW 8.1 mph - N/A   Mostly Cloudy
4:55 AM 54.9 °F - 48.6 °F 79% 29.93 in 10.0 mi WNW 9.2 mph - N/A   Overcast
5:15 AM 54.7 °F - 48.2 °F 79% 29.94 in 10.0 mi WNW 10.4 mph - N/A   Overcast
6:15 AM 53.2 °F - 45.7 °F 76% 29.98 in 10.0 mi WNW 6.9 mph - N/A   Scattered Clouds
6:35 AM 52.3 °F - 45.0 °F 76% 29.98 in 10.0 mi WNW 8.1 mph - N/A   Clear
6:55 AM 51.4 °F - 44.2 °F 76% 29.98 in 10.0 mi WNW 8.1 mph - N/A   Clear
7:15 AM 50.2 °F - 43.7 °F 78% 29.99 in 10.0 mi NW 5.8 mph - N/A   Clear
7:35 AM 49.6 °F - 43.3 °F 79% 29.99 in 10.0 mi NW 6.9 mph - N/A   Clear
7:55 AM 49.6 °F - 42.8 °F 77% 30.01 in 10.0 mi NW 5.8 mph - N/A   Clear
8:15 AM 50.9 °F - 43.7 °F 76% 30.02 in 10.0 mi WNW 5.8 mph - N/A   Clear
8:35 AM 52.9 °F - 43.9 °F 71% 30.03 in 10.0 mi WNW 10.4 mph - N/A   Clear
8:55 AM 54.7 °F - 43.5 °F 66% 30.04 in 10.0 mi WNW 10.4 mph - N/A   Clear
9:15 AM 55.4 °F - 42.3 °F 61% 30.04 in 10.0 mi WNW 13.8 mph 20.7 mph N/A   Clear
9:35 AM 56.5 °F - 42.1 °F 59% 30.04 in 10.0 mi NW 13.8 mph 19.6 mph N/A   Clear
9:55 AM 57.0 °F - 41.7 °F 57% 30.05 in 10.0 mi NW 12.7 mph 17.3 mph N/A   Clear
10:15 AM 57.4 °F - 41.4 °F 55% 30.06 in 10.0 mi WNW 13.8 mph 20.7 mph N/A   Clear
10:35 AM 58.3 °F - 40.8 °F 52% 30.07 in 10.0 mi WNW 13.8 mph 20.7 mph N/A   Clear
10:55 AM 59.2 °F - 39.9 °F 49% 30.07 in 10.0 mi WNW 12.7 mph 17.3 mph N/A   Clear
11:15 AM 60.8 °F - 38.8 °F 44% 30.08 in 10.0 mi WNW 16.1 mph 26.5 mph N/A   Clear
11:35 AM 61.9 °F - 38.5 °F 42% 30.08 in 10.0 mi NW 11.5 mph 20.7 mph N/A   Clear
11:55 AM 62.6 °F - 39.4 °F 42% 30.09 in 10.0 mi WNW 12.7 mph 20.7 mph N/A   Clear
12:15 PM 62.8 °F - 38.7 °F 41% 30.09 in 10.0 mi West 11.5 mph 19.6 mph N/A   Clear
12:35 PM 63.9 °F - 38.8 °F 40% 30.09 in 10.0 mi WNW 12.7 mph 18.4 mph N/A   Clear
12:55 PM 64.4 °F - 37.2 °F 37% 30.09 in 10.0 mi West 12.7 mph - N/A   Clear
1:15 PM 64.9 °F - 36.5 °F 35% 30.09 in 10.0 mi West 15.0 mph 21.9 mph N/A   Clear
1:35 PM 64.9 °F - 34.2 °F 32% 30.09 in 10.0 mi WNW 17.3 mph 23.0 mph N/A   Clear
1:55 PM 65.3 °F - 33.3 °F 30% 30.10 in 10.0 mi NW 15.0 mph 24.2 mph N/A   Clear
2:15 PM 65.8 °F - 33.4 °F 30% 30.10 in 10.0 mi WNW 13.8 mph 24.2 mph N/A   Clear
2:35 PM 66.2 °F - 32.2 °F 28% 30.10 in 10.0 mi WNW 15.0 mph 20.7 mph N/A   Clear
2:55 PM 66.4 °F - 33.4 °F 29% 30.10 in 10.0 mi NW 16.1 mph - N/A   Clear
3:15 PM 66.6 °F - 33.3 °F 29% 30.11 in 10.0 mi WNW 15.0 mph 23.0 mph N/A   Clear
3:35 PM 66.6 °F - 33.1 °F 29% 30.11 in 10.0 mi WNW 15.0 mph 24.2 mph N/A   Clear
3:55 PM 66.9 °F - 32.0 °F 27% 30.11 in 10.0 mi WNW 16.1 mph 20.7 mph N/A   Clear
4:15 PM 66.2 °F - 32.5 °F 29% 30.11 in 10.0 mi West 12.7 mph 23.0 mph N/A   Clear
4:35 PM 65.7 °F - 32.7 °F 29% 30.12 in 10.0 mi WNW 13.8 mph 19.6 mph N/A   Clear
4:55 PM 65.3 °F - 32.7 °F 30% 30.12 in 10.0 mi WNW 12.7 mph - N/A   Clear
5:15 PM 64.4 °F - 32.2 °F 30% 30.13 in 10.0 mi WNW 11.5 mph - N/A   Clear
5:35 PM 63.7 °F - 32.0 °F 31% 30.13 in 10.0 mi WNW 10.4 mph 16.1 mph N/A   Clear
5:55 PM 62.1 °F - 32.4 °F 33% 30.13 in 10.0 mi WNW 9.2 mph - N/A   Clear
6:15 PM 59.9 °F - 32.9 °F 36% 30.14 in 10.0 mi WNW 5.8 mph - N/A   Clear
6:35 PM 56.3 °F - 34.2 °F 43% 30.14 in 10.0 mi WNW 5.8 mph - N/A   Clear
6:55 PM 51.8 °F - 36.3 °F 56% 30.15 in 10.0 mi WNW 5.8 mph - N/A   Clear
7:15 PM 49.8 °F - 37.0 °F 61% 30.15 in 10.0 mi West 5.8 mph - N/A   Clear
7:35 PM 48.2 °F - 37.4 °F 66% 30.17 in 10.0 mi West 5.8 mph - N/A   Clear
7:55 PM 46.8 °F - 37.4 °F 70% 30.17 in 10.0 mi West 6.9 mph - N/A   Clear
8:15 PM 46.8 °F - 37.2 °F 69% 30.17 in 10.0 mi West 5.8 mph - N/A   Clear
8:35 PM 47.5 °F - 36.9 °F 67% 30.18 in 10.0 mi West 5.8 mph - N/A   Clear
8:55 PM 45.5 °F 41.8 °F 36.9 °F 72% 30.19 in 10.0 mi West 6.9 mph - N/A   Clear
9:15 PM 45.3 °F 43.0 °F 36.7 °F 72% 30.20 in 10.0 mi WSW 4.6 mph - N/A   Clear
9:35 PM 42.1 °F 39.2 °F 37.4 °F 83% 30.21 in 10.0 mi West 4.6 mph - N/A   Clear
9:55 PM 43.7 °F 39.7 °F 37.2 °F 78% 30.22 in 10.0 mi West 6.9 mph - N/A   Clear
10:15 PM 43.7 °F 40.3 °F 36.5 °F 76% 30.22 in 10.0 mi West 5.8 mph - N/A   Clear
10:35 PM 43.7 °F 39.7 °F 36.1 °F 75% 30.22 in 10.0 mi West 6.9 mph - N/A   Clear
10:55 PM 43.2 °F 39.7 °F 36.0 °F 76% 30.23 in 10.0 mi West 5.8 mph - N/A   Clear
11:15 PM 43.0 °F 38.2 °F 35.8 °F 76% 30.24 in 10.0 mi West 8.1 mph - N/A   Clear
11:35 PM 41.9 °F 39.0 °F 36.0 °F 79% 30.25 in 10.0 mi West 4.6 mph - N/A   Clear
11:55 PM 41.7 °F 37.3 °F 35.6 °F 79% 30.25 in 10.0 mi West 6.9 mph - N/A   Clear